Temp
33 32 32 33 34 35 36 35 34 34 39 43 46 50 53 55 53 57 60 55 55 55 56 57 58 59 59 60 60 61 62 63 63 63 63 64 64 64
33 32 32 33 34 35 35 36 36 36 38 43 45 48 51 53 53 56 59 54 53 53 53 55 55 57 57 57 57 58 59 60 61 61 62 62 63 63
32 31 32 34 34 34 35 35 35 37 36 42 46 48 48 49 52 56 58 59 56 53 52 52 52 53 53 54 54 55 56 57 58 59 60 60 62 63
30 31 31 34 34 35 34 34 35 37 38 40 42 44 46 46 49 53 59 61 60 52 52 51 51 50 50 51 51 52 52 53 54 55 56 57 59 61
30 30 32 33 32 34 33 33 35 37 38 40 39 42 44 43 45 59 60 60 61 52 51 50 50 50 50 50 50 50 51 50 50 51 52 52 54 56
31 31 32 33 32 33 33 33 34 35 36 37 38 39 39 42 43 52 58 60 56 57 54 54 51 49 49 49 49 49 50 50 50 49 49 48 48 51
31 31 32 35 36 35 34 33 33 34 34 34 35 36 36 36 37 40 52 52 48 56 57 56 55 55 53 49 51 49 48 49 49 49 49 47 47 48
30 31 32 33 33 34 35 35 34 32 32 33 32 33 33 34 36 39 44 54 49 46 55 55 57 56 56 56 50 48 47 47 48 48 48 47 47 46
31 30 31 32 32 32 34 34 34 34 31 34 32 32 33 34 37 42 44 43 41 40 46 55 57 57 58 56 47 46 46 46 47 47 47 46 46 45
31 31 30 31 32 32 33 32 33 33 33 35 35 35 35 36 38 41 43 43 42 40 40 52 53 57 58 58 47 46 46 45 45 46 46 45 45 44
31 33 32 31 34 34 31 31 31 32 35 37 37 37 37 37 37 40 38 41 38 37 38 42 39 43 51 55 54 45 46 45 45 45 45 45 44 44
29 31 33 32 33 33 30 30 29 29 32 33 34 36 37 37 36 36 36 35 36 35 37 39 36 39 42 41 43 46 50 43 45 47 46 46 46 52
27 27 30 33 33 33 32 29 29 31 31 31 32 33 35 35 36 37 35 35 34 33 37 39 36 35 38 37 38 40 41 41 44 45 44 44 44 48
27 27 29 32 32 32 31 32 32 32 31 30 29 29 30 32 34 35 36 35 36 35 38 40 37 39 40 34 36 37 39 40 41 42 43 43 42 42
28 30 31 31 31 29 31 31 30 29 28 27 27 28 29 31 34 34 36 37 36 35 36 36 36 37 36 34 33 33 35 36 39 40 40 39 39 39
27 26 27 28 28 28 28 29 29 29 28 26 26 28 30 31 31 33 33 34 33 33 35 34 34 34 33 32 33 32 33 33 35 37 38 38 38 38
26 25 24 24 24 25 26 26 27 28 27 28 27 27 28 29 29 32 32 32 30 29 30 33 33 33 32 32 31 32 32 32 33 33 35 34 33 34
25 22 21 21 22 22 23 24 25 26 27 28 28 27 26 27 28 30 31 30 28 29 30 31 33 33 31 31 32 29 30 31 32 32 33 33 32 32
23 22 20 21 21 22 23 23 22 25 27 27 26 27 27 27 26 27 28 29 28 28 29 31 31 31 27 24 29 34 28 30 30 29 32 32 31 32
24 22 21 22 22 21 22 21 22 23 24 25 25 25 26 26 25 25 26 26 26 27 27 28 29 29 27 25 25 28 33 29 28 27 27 31 32 32
23 23 22 22 21 21 20 21 20 20 21 22 23 23 23 25 24 25 25 24 26 26 25 25 28 30 31 31 24 26 28 33 31 27 27 28 27 28
22 22 23 22 21 21 19 17 19 19 20 21 21 21 21 24 23 23 23 23 25 25 25 27 29 30 28 27 23 23 26 28 32 32 31 29 25 21
20 21 20 21 21 21 20 18 17 14 18 19 20 21 17 21 23 23 23 23 23 24 24 24 26 28 26 26 24 23 24 24 25 26 27 30 31 30
MSLP
1016.70 1015.79 1014.64 1013.47 1012.50 1011.34 1010.57 1009.82 1008.73 1007.34 1006.55 1006.01 1005.68 1005.86 1006.00 1007.26 1008.01 1008.19 1008.87 1009.75 1010.41 1011.88 1013.05 1014.22 1015.41 1016.53 1017.55 1018.55 1019.49 1020.39 1021.25 1021.94 1022.61 1023.35 1024.10 1024.80 1025.41 1026.00
1017.13 1016.13 1014.65 1013.38 1012.19 1011.46 1010.68 1009.80 1009.10 1008.70 1007.80 1007.54 1007.69 1007.30 1007.02 1007.20 1007.72 1008.70 1009.18 1010.16 1010.77 1011.79 1012.88 1014.05 1015.25 1016.37 1017.38 1018.34 1019.31 1020.14 1021.03 1021.79 1022.55 1023.27 1023.95 1024.60 1025.27 1025.82
1017.51 1016.46 1015.22 1013.80 1012.57 1011.41 1010.65 1010.25 1009.67 1009.16 1008.64 1007.93 1007.54 1007.02 1007.31 1007.72 1008.75 1008.75 1009.32 1009.99 1011.21 1011.54 1012.81 1014.00 1015.10 1016.18 1017.20 1018.17 1019.13 1019.95 1020.80 1021.59 1022.39 1023.17 1023.86 1024.52 1025.07 1025.67
1018.13 1016.89 1015.74 1014.46 1013.38 1012.12 1011.16 1010.44 1009.78 1009.34 1009.20 1008.52 1008.10 1007.64 1007.61 1008.10 1007.73 1007.71 1008.70 1009.56 1010.79 1012.01 1012.84 1013.95 1015.12 1015.99 1016.99 1018.00 1018.90 1019.78 1020.67 1021.46 1022.25 1023.04 1023.76 1024.36 1024.89 1025.41
1018.87 1017.81 1016.55 1015.29 1014.03 1012.98 1011.88 1011.09 1010.46 1009.83 1009.17 1008.99 1009.14 1008.57 1008.32 1008.60 1007.58 1006.69 1008.06 1009.31 1010.50 1012.31 1013.01 1014.01 1015.10 1016.00 1016.82 1017.73 1018.72 1019.58 1020.48 1021.33 1022.03 1022.84 1023.53 1024.22 1024.76 1025.26
1019.58 1018.50 1017.48 1016.48 1015.34 1014.19 1013.20 1012.24 1011.58 1010.78 1010.39 1009.80 1010.16 1009.64 1009.65 1009.60 1008.96 1007.74 1008.39 1009.45 1011.02 1012.39 1013.48 1014.16 1015.08 1016.07 1016.85 1017.71 1018.66 1019.54 1020.21 1021.04 1021.81 1022.59 1023.19 1023.84 1024.49 1025.02
1020.29 1019.35 1018.52 1017.56 1016.63 1015.59 1014.32 1013.52 1012.70 1012.25 1011.76 1011.44 1011.16 1010.77 1010.69 1010.94 1010.79 1010.11 1009.27 1010.32 1012.24 1012.77 1013.78 1014.74 1015.64 1016.59 1017.50 1017.96 1018.74 1019.37 1020.16 1020.79 1021.43 1022.23 1022.92 1023.55 1024.19 1024.73
1021.27 1020.38 1019.46 1018.48 1017.59 1016.68 1015.85 1015.01 1014.50 1013.52 1013.21 1013.05 1012.98 1013.11 1013.30 1013.27 1011.87 1010.59 1010.54 1011.20 1013.38 1014.13 1014.01 1014.85 1015.44 1016.53 1017.22 1018.01 1018.59 1019.38 1019.99 1020.74 1021.35 1021.86 1022.61 1023.25 1023.80 1024.34
1022.38 1021.54 1020.67 1019.78 1018.84 1018.03 1017.22 1016.40 1015.62 1015.20 1015.33 1015.08 1015.06 1014.45 1014.66 1013.57 1012.63 1011.47 1011.78 1012.72 1014.32 1015.36 1014.96 1015.33 1015.70 1016.43 1016.95 1017.69 1018.39 1019.12 1019.83 1020.41 1021.06 1021.69 1022.10 1022.75 1023.40 1023.89
1023.70 1022.92 1021.99 1021.16 1020.20 1019.39 1018.51 1017.83 1017.37 1016.84 1016.62 1016.43 1016.27 1016.17 1014.99 1014.03 1013.35 1013.32 1013.47 1014.19 1015.43 1015.86 1016.41 1016.17 1016.04 1016.37 1016.83 1017.49 1018.22 1018.72 1019.34 1020.05 1020.72 1021.20 1021.77 1022.20 1022.71 1023.29
1024.74 1023.80 1023.01 1022.22 1021.55 1020.63 1019.85 1019.36 1018.85 1018.52 1018.06 1017.65 1017.14 1016.35 1015.24 1014.87 1014.89 1014.41 1014.85 1015.04 1016.09 1017.43 1017.81 1017.44 1017.83 1017.21 1017.31 1018.05 1018.18 1018.61 1019.11 1019.54 1020.04 1020.72 1021.21 1021.78 1022.25 1022.76
1025.75 1025.26 1024.50 1023.80 1022.76 1021.88 1021.21 1020.87 1019.88 1020.27 1019.46 1018.54 1017.41 1016.69 1016.50 1016.56 1016.49 1016.71 1016.98 1016.89 1017.37 1017.98 1018.79 1018.35 1018.52 1018.19 1018.89 1020.32 1020.09 1019.78 1019.90 1020.62 1020.69 1021.04 1021.37 1021.73 1022.14 1022.68
1026.85 1026.29 1025.94 1025.08 1024.19 1023.26 1022.78 1022.21 1022.28 1021.89 1021.28 1020.42 1019.82 1019.43 1019.11 1018.75 1018.83 1018.98 1019.32 1019.15 1019.08 1019.46 1019.49 1018.71 1019.48 1019.07 1019.41 1020.69 1021.56 1021.65 1021.57 1021.57 1021.49 1021.57 1021.45 1021.66 1022.10 1022.58
1028.23 1027.87 1027.27 1026.26 1025.50 1024.86 1024.39 1024.10 1023.47 1023.00 1022.72 1022.23 1021.93 1021.89 1021.55 1021.39 1021.22 1020.97 1020.85 1020.91 1020.94 1020.99 1020.77 1020.14 1020.29 1019.69 1019.24 1021.19 1022.45 1023.01 1022.94 1022.48 1022.31 1022.58 1022.35 1022.06 1022.37 1022.83
1029.31 1028.90 1028.33 1027.69 1027.00 1026.42 1025.85 1025.27 1024.81 1024.92 1024.31 1023.91 1024.49 1024.55 1024.19 1023.97 1023.33 1022.85 1022.55 1022.48 1022.46 1022.27 1022.33 1021.75 1021.41 1021.17 1021.10 1022.25 1023.62 1024.23 1024.10 1023.76 1023.52 1023.54 1023.86 1023.23 1023.75 1024.20
1030.26 1030.09 1029.67 1029.01 1028.31 1028.08 1027.56 1027.28 1027.01 1026.74 1026.13 1026.62 1026.89 1026.28 1025.74 1024.86 1024.54 1024.45 1024.18 1023.97 1023.54 1023.96 1024.08 1024.10 1023.52 1023.29 1023.76 1024.31 1024.58 1025.15 1025.57 1025.31 1025.19 1024.69 1025.11 1025.11 1024.91 1025.41
1031.22 1030.81 1030.21 1029.87 1029.90 1029.94 1029.64 1029.29 1028.93 1028.64 1028.27 1028.09 1027.78 1027.41 1026.99 1026.32 1026.29 1026.18 1025.79 1025.57 1025.37 1026.07 1025.90 1025.88 1026.22 1026.24 1026.17 1026.37 1026.55 1027.22 1027.11 1026.13 1025.78 1026.43 1025.41 1026.57 1027.02 1026.03
1032.21 1032.31 1032.42 1032.24 1032.01 1031.86 1031.51 1031.18 1030.67 1030.16 1029.92 1029.42 1029.29 1028.88 1028.57 1028.60 1028.52 1028.14 1027.58 1027.12 1027.46 1027.78 1027.56 1027.54 1027.28 1027.28 1027.39 1027.71 1028.37 1028.18 1027.46 1026.79 1026.66 1026.78 1027.58 1027.60 1027.89 1027.53
1033.25 1033.69 1033.61 1033.55 1033.52 1033.43 1033.13 1032.85 1032.50 1032.05 1031.53 1031.08 1030.77 1030.47 1030.35 1030.12 1029.65 1029.41 1029.46 1029.33 1029.13 1029.12 1029.21 1028.99 1028.68 1028.51 1028.58 1029.40 1030.48 1029.98 1029.54 1029.16 1028.77 1028.33 1028.10 1028.15 1028.53 1028.37
1034.48 1034.56 1034.79 1034.99 1034.90 1034.74 1034.58 1034.43 1034.16 1033.69 1033.13 1032.95 1032.60 1032.48 1032.09 1031.88 1031.61 1031.55 1031.42 1031.24 1030.89 1030.75 1030.59 1030.58 1030.38 1030.34 1030.26 1030.87 1031.29 1031.67 1031.06 1030.38 1029.92 1029.99 1029.78 1029.68 1029.50 1029.37
1035.82 1035.81 1035.74 1035.62 1035.59 1035.71 1035.81 1035.58 1035.39 1035.12 1034.69 1034.21 1034.00 1033.75 1033.41 1033.15 1033.13 1033.11 1032.91 1032.54 1032.17 1032.10 1032.01 1032.15 1032.22 1031.87 1031.47 1031.31 1031.89 1031.96 1031.91 1031.50 1031.43 1031.49 1031.30 1030.44 1030.08 1029.91
1036.54 1036.64 1036.70 1036.73 1036.66 1036.53 1036.38 1036.20 1035.73 1035.73 1035.65 1035.35 1035.17 1034.97 1034.66 1034.47 1034.43 1034.34 1034.17 1033.80 1033.59 1033.49 1033.38 1033.41 1033.05 1032.46 1032.33 1032.07 1032.83 1033.07 1032.73 1032.53 1032.00 1031.66 1031.64 1031.76 1031.94 1031.51
1036.89 1036.91 1037.10 1037.15 1037.14 1037.16 1036.99 1036.91 1037.06 1037.36 1036.77 1036.38 1036.08 1035.96 1036.07 1035.51 1035.37 1035.27 1035.12 1034.85 1034.69 1034.31 1034.33 1034.09 1033.81 1033.53 1033.63 1033.75 1033.91 1033.93 1033.59 1033.26 1032.82 1032.13 1031.95 1031.95 1031.84 1031.68
Wind_Speed
11 12 10 8 8 7 6 4 4 4 7 6 4 7 9 5 7 5 14 23 30 27 27 27 25 24 23 22 21 21 21 20 19 19 19 19 19 18
10 14 12 9 9 7 6 6 5 2 3 2 2 1 6 6 5 6 7 14 23 27 26 25 25 24 23 22 20 19 18 18 17 16 16 15 17 17
14 14 15 15 10 9 7 6 5 5 2 1 2 3 5 7 2 5 10 12 11 28 26 24 24 22 22 21 19 19 18 18 17 16 16 13 16 15
15 16 16 12 14 12 9 10 8 7 1 3 5 7 8 3 4 5 13 13 15 21 26 26 23 22 21 20 20 19 18 17 16 16 15 14 14 13
14 15 16 16 16 12 12 11 9 8 8 5 5 5 6 5 5 9 15 15 13 18 23 24 23 22 22 21 20 20 19 17 17 16 16 14 14 13
15 15 16 16 17 15 13 13 11 10 10 9 5 5 6 4 5 4 12 12 11 12 12 16 21 20 21 20 19 18 19 19 17 17 17 16 15 14
16 16 16 23 26 22 12 15 15 11 10 9 10 6 7 5 6 4 8 12 8 3 8 6 7 8 8 14 14 18 17 17 18 17 17 16 15 15
17 16 15 21 20 22 24 23 22 14 16 11 10 9 9 4 5 4 3 10 6 7 3 5 8 7 6 8 11 14 16 16 16 17 16 15 16 16
16 16 15 14 19 15 18 21 24 28 19 12 11 13 4 7 7 9 8 6 5 4 3 5 5 6 6 7 14 16 15 16 16 16 17 18 17 16
15 18 17 17 21 17 15 16 17 17 17 13 13 12 12 10 8 4 6 9 7 10 7 3 0 4 5 5 14 15 17 17 16 17 16 17 17 17
14 18 19 19 28 27 17 17 17 17 16 22 21 24 31 32 23 8 10 4 5 6 9 3 4 3 2 4 3 11 15 17 19 17 17 17 17 16
13 15 28 24 29 29 18 16 18 15 15 17 18 23 25 23 29 19 11 10 4 4 5 4 4 2 5 4 9 9 5 13 3 7 10 12 12 7
11 11 13 28 30 30 28 18 17 12 16 14 14 14 15 17 14 15 15 11 8 7 9 3 4 3 2 5 5 10 9 8 7 6 1 6 8 10
11 9 12 27 28 30 21 27 25 16 12 13 13 14 14 13 13 13 15 15 13 15 13 9 4 5 3 5 5 5 9 10 9 8 8 11 8 3
10 16 22 24 25 20 28 26 21 13 13 14 13 12 11 10 11 12 13 14 17 19 16 18 12 14 13 9 5 6 4 9 10 9 9 12 11 9
10 10 12 15 18 16 15 16 13 12 13 12 10 9 9 12 13 11 12 10 13 14 17 22 19 15 12 12 10 11 9 7 7 8 8 9 10 11
7 8 11 12 13 12 12 13 12 12 12 11 11 12 12 12 13 11 12 12 14 12 13 11 10 19 18 15 10 10 8 9 11 8 8 9 8 9
8 10 10 10 11 11 11 11 12 14 12 11 11 11 12 12 11 11 11 13 13 12 12 10 9 7 5 15 26 10 11 10 10 11 7 7 9 7
10 9 9 9 9 9 9 10 10 10 10 11 11 11 11 11 12 12 11 11 12 12 12 10 11 11 11 13 7 25 10 10 10 10 8 8 8 10
8 8 8 7 8 8 8 8 8 9 10 10 10 10 10 10 10 11 11 11 11 10 11 11 11 10 10 7 5 7 21 10 11 10 7 7 4 6
5 6 5 5 6 6 6 6 7 8 8 8 9 9 9 9 10 9 9 12 12 10 11 11 9 10 6 3 7 8 9 18 13 10 9 4 7 7
3 4 4 4 4 4 5 4 6 8 7 7 8 8 7 8 9 9 9 8 9 9 8 7 8 8 10 10 9 9 9 9 11 14 20 15 5 7
3 3 3 3 3 3 4 4 5 3 5 6 6 6 5 7 7 7 7 8 8 8 8 8 7 8 9 9 8 7 13 11 9 9 9 18 15 19
Wind_Direction
340 341 332 327 322 318 325 328 322 359 40 7 40 11 98 132 114 89 166 161 154 155 158 158 155 159 159 160 164 168 172 174 176 176 179 181 182 185
345 343 338 336 333 340 335 336 349 1 51 360 33 341 97 105 98 146 158 156 163 156 155 158 158 159 159 159 161 162 166 169 172 173 177 182 182 187
351 349 345 345 346 344 350 359 11 11 4 2 343 12 72 92 152 184 170 165 169 157 155 156 157 158 158 159 160 162 164 167 168 174 177 176 184 188
354 351 352 353 358 359 357 4 6 9 318 23 16 27 59 39 323 216 167 162 167 169 157 157 160 158 158 160 162 162 165 166 168 169 173 177 182 190
359 355 355 358 3 2 7 11 11 9 18 49 51 14 48 22 337 135 149 149 153 159 158 161 162 164 163 163 166 167 166 169 169 171 173 176 182 185
4 2 4 7 7 7 14 16 14 20 23 39 44 43 39 359 352 102 126 137 134 161 171 174 169 168 167 165 166 171 171 173 175 179 179 180 183 186
11 8 7 14 10 14 19 23 25 29 33 35 40 35 32 11 5 316 101 99 66 121 156 155 162 173 175 171 175 173 178 179 178 182 185 185 187 191
16 10 9 13 8 12 17 27 34 29 38 36 35 42 28 345 319 343 61 123 124 28 139 130 159 165 161 182 180 179 179 182 187 184 186 188 188 193
16 14 12 15 13 15 20 28 32 34 35 37 40 36 9 358 348 32 45 63 70 17 10 137 155 160 165 172 166 176 184 187 189 192 189 189 193 195
22 24 20 19 21 22 26 31 32 32 25 33 39 40 39 30 27 44 64 91 94 53 10 95 314 149 148 166 177 180 184 188 194 196 198 195 194 197
26 27 27 26 26 26 29 32 33 27 22 32 39 43 46 45 41 50 40 65 67 37 12 42 11 25 86 40 196 195 197 195 194 201 201 201 200 200
24 28 31 31 32 33 34 27 35 17 15 21 28 34 38 41 43 42 28 45 42 44 8 72 360 314 84 25 31 32 53 15 284 261 235 224 217 209
27 21 27 31 34 36 36 33 33 24 28 31 33 34 36 39 40 41 39 41 49 56 353 66 5 333 85 121 50 34 38 25 31 21 270 200 192 206
31 25 26 34 36 35 36 35 35 35 36 39 36 31 30 29 28 34 42 45 47 49 27 37 55 15 75 90 55 355 36 38 35 30 31 36 49 35
33 35 34 33 34 33 33 34 34 31 38 41 36 32 32 34 36 40 40 49 52 48 36 37 48 47 48 66 81 27 4 29 32 38 38 55 51 36
21 26 32 36 39 34 31 33 31 30 37 39 31 33 33 39 39 35 45 41 49 44 37 40 45 43 57 54 55 49 27 45 10 36 46 43 56 52
25 36 34 30 34 30 30 29 29 32 33 35 31 35 35 39 37 32 41 46 54 40 34 33 62 59 54 44 53 39 32 39 33 25 50 48 30 51
42 41 36 32 36 29 29 26 27 28 26 32 35 36 38 38 39 36 42 48 49 42 40 32 32 60 45 51 42 28 30 25 19 25 35 55 36 21
53 42 37 34 31 30 31 29 30 25 27 35 35 32 36 37 38 38 37 42 48 45 40 33 37 45 58 59 39 34 31 29 28 27 25 31 43 13
50 45 45 42 33 32 27 30 27 26 34 34 36 34 37 40 42 42 38 40 44 46 46 37 35 32 54 58 57 30 30 38 37 29 9 31 15 35
63 65 52 47 45 44 30 32 34 30 29 35 33 33 37 42 44 41 40 42 47 46 48 37 19 21 30 70 54 33 22 29 50 47 12 9 7 13
55 64 62 67 64 55 42 24 40 35 31 35 35 32 27 42 45 39 37 40 41 42 46 38 27 40 43 52 48 31 19 15 21 41 40 42 25 3
84 81 66 52 50 58 63 60 62 40 37 30 33 33 23 44 37 38 39 39 37 44 36 35 33 38 49 46 43 29 25 14 5 9 23 12 19 6